QPF
0.04 0.06 0.07 0.07 0.07 0.07 0.09 0.10 0.10 0.07 0.05 0.05 0.05 0.05 0.05 0.04 0.04 0.04 0.04 0.02 0.03 0.02 0.03 0.02 0.02 0.03 0.04 0.05 0.04 0.04 0.04 0.04 0.05 0.04 0.03 0.03 0.03 0.04
0.05 0.05 0.04 0.05 0.05 0.04 0.05 0.06 0.07 0.09 0.07 0.05 0.05 0.05 0.04 0.03 0.02 0.03 0.03 0.03 0.02 0.01 0.01 0.02 0.02 0.02 0.02 0.03 0.03 0.02 0.02 0.02 0.02 0.03 0.02 0.02 0.02 0.03
0.04 0.04 0.04 0.04 0.03 0.03 0.03 0.03 0.03 0.04 0.05 0.05 0.05 0.05 0.03 0.02 0.02 0.02 0.03 0.03 0.03 0.02 0.01 0.01 0.01 0.01 0.01 0.02 0.02 0.02 0.02 0.01 0.01 0.02 0.02 0.03 0.03 0.02
0.05 0.06 0.04 0.02 0.02 0.03 0.04 0.04 0.04 0.04 0.04 0.05 0.06 0.04 0.04 0.05 0.04 0.03 0.03 0.04 0.03 0.03 0.02 0.02 0.02 0.02 0.02 0.03 0.03 0.02 0.02 0.02 0.02 0.02 0.03 0.03 0.03 0.03
0.03 0.05 0.04 0.04 0.04 0.04 0.05 0.05 0.06 0.05 0.05 0.05 0.04 0.05 0.04 0.05 0.05 0.04 0.05 0.04 0.03 0.03 0.03 0.04 0.04 0.04 0.03 0.03 0.02 0.02 0.02 0.02 0.02 0.02 0.02 0.02 0.02 0.02
0.02 0.03 0.03 0.04 0.04 0.03 0.03 0.04 0.04 0.04 0.05 0.06 0.06 0.05 0.04 0.05 0.05 0.05 0.05 0.05 0.04 0.04 0.04 0.05 0.05 0.04 0.03 0.02 0.02 0.01 0.01 0.01 0.01 0.01 0.01 0.01 0.01 0.01
0.02 0.02 0.02 0.02 0.02 0.01 0.02 0.02 0.03 0.03 0.03 0.04 0.04 0.04 0.04 0.04 0.03 0.05 0.04 0.04 0.04 0.03 0.03 0.03 0.03 0.03 0.03 0.02 0.01 0.01 0.01 0.01 0.01 0.01 0.01 0.01 0.01 0.01
0.02 0.01 0.01 0.01 0.00 0.00 0.01 0.01 0.02 0.02 0.03 0.03 0.03 0.03 0.03 0.03 0.02 0.03 0.04 0.03 0.03 0.03 0.03 0.03 0.03 0.03 0.03 0.02 0.01 0.02 0.02 0.01 0.01 0.01 0.01 0.01 0.02 0.02
0.01 0.01 0.01 0.01 0.01 0.01 0.01 0.01 0.01 0.01 0.01 0.02 0.02 0.03 0.03 0.03 0.03 0.02 0.04 0.05 0.04 0.03 0.04 0.04 0.03 0.03 0.02 0.02 0.02 0.02 0.02 0.01 0.01 0.01 0.01 0.01 0.02 0.03
0.01 0.02 0.03 0.02 0.01 0.01 0.01 0.01 0.01 0.01 0.01 0.01 0.02 0.02 0.02 0.03 0.03 0.03 0.03 0.04 0.04 0.03 0.05 0.05 0.04 0.05 0.05 0.04 0.03 0.02 0.02 0.01 0.01 0.01 0.01 0.01 0.02 0.03
0.02 0.02 0.01 0.01 0.01 0.01 0.01 0.01 0.01 0.01 0.00 0.00 0.01 0.01 0.01 0.01 0.02 0.03 0.05 0.05 0.05 0.06 0.05 0.06 0.07 0.05 0.05 0.04 0.03 0.02 0.01 0.01 0.01 0.01 0.01 0.02 0.02 0.03
0.03 0.02 0.01 0.01 0.00 0.00 0.01 0.01 0.01 0.01 0.01 0.00 0.01 0.00 0.01 0.01 0.01 0.03 0.06 0.07 0.05 0.05 0.05 0.05 0.06 0.05 0.07 0.04 0.02 0.02 0.02 0.01 0.01 0.01 0.01 0.02 0.02 0.03
0.02 0.02 0.02 0.01 0.01 0.01 0.01 0.01 0.01 0.01 0.00 0.00 0.01 0.01 0.01 0.02 0.02 0.02 0.04 0.08 0.09 0.07 0.04 0.04 0.05 0.05 0.06 0.06 0.04 0.03 0.02 0.02 0.02 0.02 0.02 0.03 0.03 0.03
0.02 0.02 0.01 0.01 0.01 0.01 0.01 0.01 0.00 0.00 0.01 0.01 0.02 0.02 0.02 0.03 0.02 0.02 0.02 0.06 0.10 0.11 0.07 0.05 0.06 0.07 0.07 0.08 0.07 0.05 0.04 0.03 0.03 0.03 0.03 0.04 0.04 0.04
0.02 0.02 0.02 0.01 0.02 0.01 0.01 0.01 0.01 0.01 0.01 0.02 0.02 0.01 0.01 0.01 0.01 0.02 0.03 0.04 0.07 0.09 0.09 0.07 0.06 0.07 0.07 0.06 0.06 0.06 0.04 0.04 0.03 0.03 0.04 0.05 0.05 0.06
0.03 0.03 0.02 0.02 0.01 0.01 0.01 0.01 0.01 0.02 0.02 0.02 0.02 0.01 0.01 0.01 0.01 0.02 0.02 0.03 0.04 0.05 0.07 0.07 0.07 0.07 0.07 0.07 0.06 0.05 0.05 0.04 0.04 0.04 0.04 0.05 0.06 0.07
0.02 0.03 0.03 0.03 0.02 0.01 0.01 0.01 0.01 0.01 0.01 0.01 0.02 0.02 0.02 0.02 0.03 0.03 0.03 0.03 0.03 0.03 0.04 0.06 0.08 0.09 0.09 0.08 0.07 0.07 0.06 0.06 0.05 0.06 0.05 0.04 0.05 0.06
0.02 0.03 0.03 0.03 0.02 0.01 0.01 0.01 0.01 0.01 0.01 0.01 0.01 0.01 0.02 0.03 0.04 0.06 0.07 0.06 0.05 0.05 0.05 0.06 0.08 0.09 0.10 0.08 0.06 0.05 0.05 0.05 0.05 0.06 0.06 0.05 0.04 0.05
0.03 0.03 0.03 0.03 0.03 0.02 0.01 0.01 0.01 0.01 0.01 0.01 0.01 0.01 0.02 0.03 0.03 0.04 0.05 0.06 0.07 0.07 0.07 0.07 0.08 0.09 0.10 0.08 0.06 0.04 0.04 0.05 0.05 0.06 0.05 0.05 0.04 0.04
0.03 0.04 0.03 0.03 0.03 0.02 0.02 0.01 0.01 0.01 0.01 0.01 0.01 0.02 0.03 0.03 0.03 0.04 0.03 0.03 0.04 0.05 0.06 0.07 0.08 0.08 0.07 0.07 0.06 0.06 0.05 0.04 0.04 0.05 0.04 0.05 0.05 0.04
0.04 0.04 0.03 0.03 0.02 0.02 0.02 0.01 0.01 0.01 0.01 0.01 0.01 0.02 0.03 0.03 0.03 0.03 0.03 0.03 0.03 0.04 0.05 0.06 0.06 0.05 0.06 0.06 0.05 0.05 0.04 0.04 0.03 0.03 0.04 0.04 0.06 0.06
0.04 0.03 0.03 0.02 0.02 0.01 0.01 0.01 0.01 0.01 0.01 0.01 0.02 0.03 0.03 0.03 0.03 0.03 0.03 0.03 0.03 0.04 0.04 0.05 0.05 0.05 0.05 0.05 0.05 0.04 0.04 0.03 0.02 0.02 0.02 0.02 0.03 0.04
0.03 0.03 0.02 0.01 0.01 0.01 0.01 0.01 0.02 0.02 0.01 0.01 0.02 0.03 0.05 0.04 0.04 0.04 0.03 0.04 0.04 0.05 0.05 0.05 0.04 0.04 0.04 0.04 0.04 0.04 0.04 0.03 0.02 0.02 0.01 0.01 0.01 0.03
MSLP
1007.18 1007.21 1007.24 1007.27 1007.25 1007.16 1007.00 1006.74 1006.41 1006.01 1005.58 1005.16 1004.76 1004.44 1004.19 1004.03 1003.96 1003.95 1004.00 1004.08 1004.17 1004.26 1004.34 1004.40 1004.43 1004.44 1004.43 1004.40 1004.36 1004.31 1004.27 1004.26 1004.29 1004.38 1004.55 1004.81 1005.18 1005.63
1007.09 1007.04 1007.01 1006.97 1006.91 1006.79 1006.59 1006.31 1005.96 1005.55 1005.11 1004.67 1004.25 1003.90 1003.62 1003.43 1003.31 1003.26 1003.26 1003.30 1003.36 1003.42 1003.47 1003.52 1003.56 1003.59 1003.61 1003.61 1003.60 1003.58 1003.55 1003.53 1003.53 1003.57 1003.68 1003.87 1004.14 1004.51
1007.20 1007.08 1006.99 1006.90 1006.80 1006.65 1006.45 1006.17 1005.82 1005.41 1004.98 1004.53 1004.11 1003.73 1003.42 1003.18 1003.00 1002.88 1002.80 1002.76 1002.73 1002.71 1002.70 1002.70 1002.70 1002.71 1002.74 1002.76 1002.79 1002.82 1002.83 1002.84 1002.86 1002.89 1002.96 1003.08 1003.28 1003.56
1007.49 1007.31 1007.17 1007.05 1006.92 1006.76 1006.56 1006.29 1005.95 1005.56 1005.14 1004.70 1004.28 1003.89 1003.54 1003.25 1003.01 1002.80 1002.62 1002.46 1002.31 1002.16 1002.03 1001.93 1001.85 1001.81 1001.81 1001.84 1001.91 1001.98 1002.06 1002.14 1002.21 1002.27 1002.35 1002.45 1002.60 1002.81
1007.89 1007.68 1007.51 1007.36 1007.22 1007.06 1006.86 1006.60 1006.29 1005.92 1005.52 1005.10 1004.68 1004.28 1003.92 1003.58 1003.27 1002.98 1002.69 1002.39 1002.09 1001.79 1001.51 1001.25 1001.05 1000.92 1000.85 1000.87 1000.95 1001.08 1001.24 1001.40 1001.56 1001.70 1001.83 1001.95 1002.08 1002.23
1008.34 1008.12 1007.94 1007.78 1007.64 1007.48 1007.28 1007.03 1006.73 1006.38 1006.00 1005.60 1005.20 1004.81 1004.43 1004.07 1003.72 1003.35 1002.96 1002.53 1002.08 1001.61 1001.15 1000.72 1000.36 1000.10 999.94 999.91 999.99 1000.16 1000.40 1000.66 1000.93 1001.17 1001.37 1001.53 1001.67 1001.79
1008.77 1008.56 1008.38 1008.23 1008.09 1007.92 1007.72 1007.48 1007.18 1006.84 1006.47 1006.09 1005.71 1005.34 1004.97 1004.61 1004.23 1003.82 1003.36 1002.83 1002.25 1001.62 1000.99 1000.39 999.86 999.45 999.18 999.08 999.13 999.33 999.62 999.97 1000.34 1000.68 1000.96 1001.17 1001.31 1001.40
1009.14 1008.95 1008.80 1008.65 1008.51 1008.34 1008.13 1007.87 1007.56 1007.22 1006.85 1006.48 1006.12 1005.77 1005.44 1005.10 1004.73 1004.31 1003.81 1003.23 1002.55 1001.81 1001.03 1000.28 999.60 999.05 998.67 998.48 998.49 998.68 999.01 999.42 999.86 1000.27 1000.60 1000.84 1000.96 1000.98
1009.44 1009.29 1009.15 1009.02 1008.87 1008.68 1008.45 1008.16 1007.83 1007.46 1007.08 1006.72 1006.37 1006.06 1005.76 1005.46 1005.13 1004.74 1004.26 1003.66 1002.94 1002.14 1001.28 1000.42 999.63 998.96 998.48 998.21 998.16 998.32 998.64 999.07 999.53 999.96 1000.29 1000.50 1000.56 1000.48
1009.70 1009.59 1009.47 1009.34 1009.18 1008.96 1008.69 1008.36 1007.98 1007.58 1007.18 1006.80 1006.46 1006.17 1005.91 1005.67 1005.40 1005.06 1004.63 1004.06 1003.37 1002.56 1001.68 1000.78 999.93 999.20 998.65 998.31 998.20 998.31 998.59 998.97 999.39 999.78 1000.05 1000.17 1000.11 999.88
1009.98 1009.89 1009.78 1009.64 1009.46 1009.20 1008.88 1008.49 1008.06 1007.61 1007.17 1006.77 1006.42 1006.15 1005.92 1005.72 1005.51 1005.24 1004.88 1004.39 1003.77 1003.02 1002.17 1001.30 1000.46 999.71 999.13 998.75 998.59 998.63 998.83 999.14 999.47 999.74 999.89 999.86 999.63 999.21
1010.32 1010.23 1010.11 1009.95 1009.73 1009.42 1009.04 1008.60 1008.11 1007.60 1007.12 1006.68 1006.32 1006.03 1005.82 1005.65 1005.49 1005.29 1005.01 1004.61 1004.08 1003.43 1002.68 1001.88 1001.10 1000.40 999.83 999.43 999.24 999.21 999.33 999.53 999.73 999.85 999.84 999.63 999.20 998.57
1010.73 1010.62 1010.47 1010.27 1010.00 1009.65 1009.21 1008.71 1008.17 1007.61 1007.08 1006.60 1006.21 1005.90 1005.68 1005.52 1005.39 1005.23 1005.02 1004.71 1004.29 1003.75 1003.12 1002.45 1001.77 1001.14 1000.63 1000.25 1000.04 999.96 1000.00 1000.07 1000.13 1000.10 999.91 999.52 998.91 998.10
1011.19 1011.04 1010.85 1010.60 1010.28 1009.88 1009.40 1008.85 1008.26 1007.67 1007.10 1006.58 1006.15 1005.81 1005.56 1005.39 1005.25 1005.12 1004.95 1004.71 1004.38 1003.96 1003.46 1002.92 1002.36 1001.85 1001.41 1001.08 1000.87 1000.77 1000.73 1000.70 1000.64 1000.47 1000.13 999.59 998.84 997.90
1011.66 1011.45 1011.20 1010.90 1010.54 1010.10 1009.59 1009.01 1008.41 1007.79 1007.19 1006.65 1006.18 1005.81 1005.52 1005.30 1005.14 1005.00 1004.85 1004.65 1004.39 1004.07 1003.68 1003.26 1002.84 1002.44 1002.09 1001.83 1001.64 1001.52 1001.44 1001.35 1001.19 1000.92 1000.50 999.87 999.06 998.06
1012.08 1011.81 1011.50 1011.16 1010.76 1010.29 1009.77 1009.19 1008.59 1007.98 1007.38 1006.83 1006.34 1005.92 1005.59 1005.33 1005.12 1004.94 1004.76 1004.58 1004.36 1004.10 1003.80 1003.49 1003.18 1002.88 1002.63 1002.43 1002.28 1002.17 1002.07 1001.94 1001.75 1001.44 1000.98 1000.35 999.55 998.60
1012.39 1012.07 1011.72 1011.34 1010.92 1010.45 1009.94 1009.39 1008.82 1008.23 1007.66 1007.11 1006.62 1006.18 1005.80 1005.48 1005.21 1004.97 1004.76 1004.55 1004.33 1004.10 1003.86 1003.62 1003.39 1003.18 1003.00 1002.86 1002.76 1002.67 1002.58 1002.45 1002.26 1001.97 1001.55 1000.98 1000.27 999.44
1012.59 1012.23 1011.86 1011.46 1011.04 1010.60 1010.12 1009.61 1009.09 1008.56 1008.03 1007.51 1007.02 1006.56 1006.14 1005.77 1005.43 1005.13 1004.85 1004.59 1004.35 1004.13 1003.91 1003.71 1003.53 1003.38 1003.25 1003.16 1003.09 1003.03 1002.96 1002.86 1002.70 1002.46 1002.12 1001.67 1001.11 1000.45
1012.70 1012.33 1011.95 1011.57 1011.18 1010.76 1010.34 1009.89 1009.44 1008.96 1008.48 1008.00 1007.52 1007.05 1006.60 1006.17 1005.77 1005.39 1005.04 1004.73 1004.45 1004.19 1003.97 1003.78 1003.63 1003.50 1003.41 1003.35 1003.30 1003.26 1003.21 1003.14 1003.03 1002.86 1002.62 1002.31 1001.92 1001.46
1012.77 1012.42 1012.07 1011.72 1011.36 1011.01 1010.64 1010.26 1009.87 1009.46 1009.03 1008.57 1008.10 1007.62 1007.13 1006.65 1006.18 1005.73 1005.31 1004.93 1004.59 1004.30 1004.05 1003.86 1003.70 1003.59 1003.51 1003.46 1003.42 1003.39 1003.36 1003.31 1003.24 1003.14 1003.00 1002.81 1002.58 1002.31
1012.88 1012.57 1012.26 1011.96 1011.66 1011.36 1011.06 1010.74 1010.41 1010.04 1009.64 1009.21 1008.74 1008.23 1007.70 1007.16 1006.61 1006.09 1005.60 1005.15 1004.75 1004.42 1004.14 1003.93 1003.76 1003.65 1003.56 1003.51 1003.47 1003.44 1003.41 1003.38 1003.34 1003.28 1003.21 1003.12 1003.01 1002.89
1013.07 1012.81 1012.57 1012.32 1012.09 1011.85 1011.60 1011.34 1011.04 1010.70 1010.32 1009.88 1009.38 1008.84 1008.25 1007.64 1007.03 1006.43 1005.86 1005.35 1004.90 1004.52 1004.21 1003.97 1003.80 1003.67 1003.58 1003.52 1003.47 1003.43 1003.40 1003.37 1003.33 1003.30 1003.27 1003.24 1003.21 1003.18
1013.37 1013.18 1012.99 1012.82 1012.64 1012.45 1012.25 1012.02 1011.74 1011.41 1011.01 1010.55 1010.01 1009.41 1008.76 1008.07 1007.38 1006.71 1006.07 1005.50 1005.00 1004.58 1004.24 1003.98 1003.79 1003.66 1003.56 1003.49 1003.44 1003.39 1003.34 1003.30 1003.26 1003.23 1003.22 1003.21 1003.23 1003.26
Thickness
5715 5713 5713 5713 5713 5713 5712 5710 5706 5704 5707 5711 5711 5712 5710 5709 5707 5707 5706 5704 5703 5702 5701 5700 5700 5699 5699 5698 5698 5698 5698 5698 5698 5697 5697 5697 5696 5696
5710 5708 5707 5709 5709 5709 5708 5707 5705 5702 5702 5706 5705 5705 5704 5704 5702 5701 5701 5699 5698 5697 5696 5695 5694 5693 5693 5693 5693 5693 5692 5692 5692 5692 5692 5691 5691 5691
5706 5704 5703 5702 5703 5704 5704 5703 5702 5700 5697 5699 5700 5699 5696 5695 5695 5694 5695 5694 5694 5691 5690 5689 5688 5687 5687 5687 5687 5686 5686 5686 5686 5686 5686 5686 5686 5686
5701 5699 5698 5699 5696 5697 5696 5696 5695 5694 5692 5688 5690 5691 5689 5689 5688 5687 5689 5689 5688 5686 5684 5683 5682 5681 5681 5681 5680 5680 5680 5680 5680 5680 5680 5680 5681 5681
5696 5694 5693 5692 5690 5691 5688 5689 5689 5689 5687 5684 5684 5683 5682 5682 5680 5680 5682 5680 5681 5681 5678 5677 5676 5675 5674 5674 5674 5674 5674 5674 5674 5674 5674 5674 5675 5676
5689 5688 5687 5686 5684 5683 5683 5681 5682 5680 5679 5678 5677 5676 5674 5674 5672 5672 5672 5672 5673 5674 5672 5671 5670 5669 5668 5668 5668 5667 5667 5666 5667 5667 5668 5668 5669 5670
5683 5682 5681 5678 5676 5675 5676 5674 5674 5673 5672 5670 5668 5667 5666 5664 5663 5664 5663 5663 5664 5665 5665 5665 5665 5664 5663 5662 5661 5660 5659 5659 5659 5660 5661 5662 5663 5664
5676 5675 5675 5673 5670 5667 5666 5664 5663 5663 5663 5660 5660 5658 5655 5655 5655 5655 5655 5655 5655 5657 5656 5657 5658 5658 5658 5657 5655 5654 5652 5652 5652 5653 5654 5655 5656 5657
5670 5669 5670 5669 5664 5663 5661 5658 5656 5654 5651 5652 5652 5650 5649 5649 5648 5647 5646 5646 5646 5649 5647 5648 5650 5650 5650 5650 5648 5646 5645 5645 5645 5645 5646 5647 5649 5650
5664 5662 5660 5658 5657 5654 5654 5653 5652 5650 5648 5647 5645 5644 5644 5642 5641 5640 5640 5640 5640 5641 5640 5639 5641 5641 5643 5642 5639 5639 5638 5637 5637 5638 5638 5640 5641 5643
5659 5657 5654 5651 5647 5644 5645 5645 5644 5643 5641 5639 5637 5636 5634 5633 5632 5634 5633 5633 5633 5633 5633 5631 5632 5632 5633 5634 5632 5631 5631 5630 5630 5631 5631 5632 5634 5636
5655 5652 5646 5643 5639 5636 5637 5637 5635 5635 5635 5634 5631 5630 5630 5629 5627 5626 5627 5626 5626 5625 5625 5623 5623 5622 5622 5625 5625 5624 5624 5624 5624 5624 5625 5626 5627 5630
5650 5648 5643 5635 5632 5629 5628 5629 5628 5625 5627 5627 5628 5627 5626 5624 5623 5621 5620 5619 5618 5617 5618 5615 5615 5615 5615 5616 5617 5618 5619 5619 5619 5619 5619 5619 5620 5622
5641 5640 5636 5628 5625 5622 5622 5621 5619 5617 5622 5623 5622 5621 5619 5618 5617 5614 5612 5610 5609 5609 5608 5607 5608 5607 5607 5608 5609 5610 5612 5613 5614 5615 5616 5614 5614 5615
5633 5628 5625 5621 5619 5619 5616 5614 5613 5615 5616 5616 5614 5614 5613 5611 5609 5607 5606 5604 5603 5603 5602 5601 5602 5602 5601 5602 5602 5603 5604 5606 5607 5609 5610 5610 5611 5611
5626 5622 5618 5616 5615 5613 5612 5611 5611 5610 5609 5608 5607 5607 5606 5604 5602 5602 5600 5600 5599 5599 5598 5596 5595 5595 5596 5596 5596 5597 5598 5599 5601 5602 5603 5604 5606 5607
5618 5618 5616 5615 5613 5611 5609 5607 5605 5603 5602 5601 5600 5599 5598 5597 5596 5595 5594 5594 5594 5593 5593 5591 5590 5590 5589 5589 5590 5591 5593 5594 5595 5595 5595 5597 5600 5601
5609 5612 5611 5609 5607 5606 5603 5601 5598 5597 5596 5594 5593 5592 5591 5590 5590 5589 5589 5589 5588 5588 5587 5586 5584 5584 5584 5584 5583 5585 5586 5587 5588 5588 5589 5591 5593 5596
5605 5607 5605 5603 5601 5599 5597 5595 5593 5591 5589 5588 5587 5586 5586 5586 5585 5584 5583 5582 5581 5581 5580 5580 5579 5579 5579 5579 5580 5577 5579 5580 5581 5582 5584 5585 5587 5589
5604 5602 5600 5598 5595 5593 5591 5589 5587 5586 5584 5583 5582 5581 5580 5580 5579 5578 5578 5576 5576 5575 5575 5575 5574 5573 5573 5574 5574 5573 5570 5573 5574 5576 5578 5579 5581 5581
5600 5598 5595 5592 5590 5587 5584 5582 5581 5579 5578 5577 5577 5575 5574 5574 5573 5573 5573 5570 5569 5570 5570 5570 5568 5565 5566 5566 5566 5567 5568 5565 5566 5567 5570 5573 5575 5577
5596 5593 5590 5587 5584 5581 5579 5577 5576 5574 5572 5572 5571 5570 5569 5568 5568 5567 5569 5568 5567 5566 5565 5565 5562 5562 5562 5562 5562 5563 5563 5563 5561 5560 5561 5564 5568 5571
5590 5588 5585 5582 5579 5576 5574 5573 5571 5570 5568 5567 5566 5565 5565 5564 5564 5564 5564 5564 5563 5562 5560 5559 5559 5559 5559 5559 5559 5559 5559 5560 5561 5560 5561 5560 5561 5562